GFSNIL_sfc_wetblb_000.txt.gz
Wetbulb
54.35 54.02 53.62 55.02 57.91 58.59 60.01 60.27 60.86 61.40 61.72 61.77 62.44 62.27 62.45 61.74 61.37 61.00 60.36 59.70 60.25 60.10
54.24 54.11 53.73 53.70 55.45 57.72 59.61 61.11 60.71 60.00 59.48 60.58 61.68 61.96 61.61 61.42 60.54 61.83 60.83 60.71 60.36 60.44
53.56 54.04 53.44 53.33 54.09 56.15 56.71 57.11 56.21 56.14 56.28 56.80 57.81 59.37 60.22 59.49 60.61 59.80 59.54 59.93 58.93 58.79
53.30 53.46 53.40 53.08 53.29 54.51 55.46 56.23 55.53 56.40 56.66 56.80 57.15 58.37 57.49 57.29 58.51 57.85 57.46 58.39 58.22 57.04
52.65 52.42 52.88 53.03 53.00 53.77 54.74 55.76 56.30 57.23 56.28 55.90 55.75 56.32 57.10 56.52 56.64 55.95 56.25 55.96 55.69 54.00
51.46 51.64 51.94 52.61 52.81 53.37 54.32 55.00 55.69 55.71 55.01 54.21 54.08 53.76 53.69 54.08 53.80 53.73 54.28 55.08 55.01 53.75
50.46 50.97 51.24 52.13 52.66 53.29 53.79 54.01 54.27 54.39 54.07 53.50 52.77 52.40 51.87 51.57 51.03 51.05 51.62 52.54 53.19 53.54
50.62 50.50 51.21 51.80 51.56 52.27 52.94 53.34 53.82 53.26 52.37 52.25 51.96 51.10 50.72 50.93 50.40 50.38 49.64 49.99 50.46 51.69
50.32 50.20 51.02 50.67 50.33 50.95 50.82 51.62 52.71 52.52 52.38 51.77 50.50 45.02 46.39 48.61 48.88 48.79 49.50 49.00 48.04 49.16
50.99 50.49 50.89 50.06 49.63 49.14 49.11 49.79 50.74 51.06 51.46 51.17 49.73 43.51 43.53 44.51 46.43 46.57 46.40 46.30 45.75 46.41
51.46 50.32 50.70 49.97 48.91 47.51 47.54 48.49 48.62 49.23 50.03 50.42 49.48 42.68 41.63 42.28 44.13 43.26 42.90 43.42 43.70 45.85
51.68 49.96 50.25 49.57 48.23 47.14 46.53 46.24 46.74 47.58 47.98 49.32 49.58 42.25 40.73 42.59 43.03 42.53 42.62 42.48 42.48 42.46
52.35 50.66 50.25 49.77 48.34 48.37 47.36 47.56 47.01 47.11 47.42 46.53 49.37 41.85 40.75 42.94 44.13 43.86 43.59 45.34 45.39 42.16
53.01 50.98 50.79 49.92 49.20 49.32 48.30 48.09 47.27 47.21 47.12 47.35 47.11 46.74 41.61 41.35 48.55 48.46 47.24 46.90 46.90 46.80

GFSNIL_sfc_wetblb_003.txt.gz
Wetbulb
61.47 60.88 59.76 63.56 60.92 62.52 62.11 62.17 62.11 62.95 63.38 63.13 62.47 64.40 65.91 66.65 66.12 66.03 64.77 64.09 63.65 62.29
61.15 61.01 60.35 61.20 62.41 63.79 62.97 63.16 63.61 61.47 62.92 65.14 64.66 63.51 63.17 64.93 64.51 62.01 61.40 61.32 61.78 60.75
60.21 60.10 60.82 61.40 62.58 62.84 62.33 61.24 60.37 59.42 59.93 63.42 64.56 62.61 63.17 64.07 64.76 62.37 64.14 63.18 62.97 62.23
59.86 59.81 60.57 60.42 61.33 61.85 61.90 61.01 59.70 59.78 59.80 60.54 62.54 61.80 61.76 63.25 64.18 63.84 63.86 64.70 63.79 63.13
59.67 59.75 60.42 59.93 60.84 62.08 62.10 62.32 62.01 61.80 61.59 60.53 60.75 60.93 59.92 61.77 63.24 63.61 63.25 62.86 63.12 62.96
59.05 59.67 59.91 59.82 59.95 61.15 62.03 61.57 61.40 61.65 61.25 60.74 60.49 60.34 60.62 61.08 61.39 63.27 63.48 63.20 63.22 62.32
58.97 59.08 59.89 59.86 60.18 61.25 61.50 61.31 60.95 60.18 59.77 59.49 59.92 60.21 59.69 59.49 58.95 58.87 60.49 61.85 62.12 61.94
58.73 58.56 59.13 59.42 59.84 60.35 61.30 61.11 60.67 60.15 60.07 60.13 59.77 58.80 60.15 60.08 60.18 59.29 58.41 58.71 58.29 58.58
57.41 57.36 58.68 58.64 59.05 59.75 60.17 60.25 60.32 60.22 59.98 60.03 57.12 45.41 48.75 57.90 60.36 60.06 59.68 58.60 57.96 57.27
57.34 56.99 58.01 57.79 57.89 58.41 59.74 60.12 59.84 59.42 59.94 59.81 57.90 44.12 44.59 49.57 60.25 60.08 59.77 59.15 58.27 55.95
57.08 57.10 57.87 57.55 57.94 58.23 58.42 59.49 59.37 59.19 59.77 59.70 57.26 43.28 42.46 46.29 57.67 57.40 56.35 56.76 56.84 57.41
56.91 57.14 57.71 57.24 57.19 57.45 57.30 57.26 57.56 58.45 58.46 59.12 58.05 42.39 41.08 49.15 55.09 54.12 52.74 52.14 52.02 53.44
57.82 57.42 57.68 58.62 57.28 56.64 57.30 57.31 56.48 56.40 57.58 53.37 58.15 41.58 40.42 48.07 52.98 52.60 50.88 50.90 50.73 42.17
58.49 57.95 58.98 59.07 57.81 57.05 56.48 56.21 55.76 55.55 56.30 56.53 56.15 55.69 40.77 40.21 54.03 52.45 51.08 50.63 51.14 51.23

GFSNIL_sfc_wetblb_006.txt.gz
Wetbulb
64.75 63.53 62.44 65.21 63.59 63.50 63.95 62.43 63.91 63.69 65.74 65.49 66.30 66.16 67.67 67.56 67.27 66.87 65.01 63.44 64.57 63.76
63.84 63.98 63.95 66.70 66.83 64.61 63.82 64.33 65.04 64.70 64.13 65.88 66.21 65.50 67.51 68.21 67.42 66.43 63.87 63.06 63.34 62.77
63.08 63.75 64.62 65.95 65.50 64.69 64.57 62.76 63.60 65.11 65.76 65.79 66.69 66.99 66.99 67.12 66.75 65.10 64.75 64.25 63.87 61.57
62.24 63.13 63.82 63.94 64.54 64.60 63.15 64.58 63.19 61.30 61.71 62.74 64.91 65.80 66.96 65.92 63.62 63.03 62.94 63.71 62.38 61.26
61.97 62.83 63.15 63.74 64.48 65.34 65.06 64.58 64.62 63.51 61.80 61.77 61.43 63.40 64.17 65.45 64.43 64.89 63.60 64.06 63.66 61.33
61.65 62.52 62.88 63.45 63.60 64.12 63.64 64.84 65.18 63.53 62.75 61.98 61.18 62.11 62.97 63.34 64.29 64.98 65.42 65.63 65.24 64.33
61.61 62.11 62.75 63.49 63.87 63.49 63.04 63.19 63.91 64.24 63.79 64.20 63.51 62.61 64.87 66.39 66.19 65.78 65.88 65.77 66.16 66.05
61.81 61.73 62.33 62.47 63.58 64.04 63.31 62.58 62.17 62.35 62.52 63.13 63.01 62.38 63.38 63.60 64.06 63.99 63.82 64.47 64.55 65.09
59.79 60.90 61.46 62.44 63.26 63.42 63.05 62.63 62.44 62.12 62.01 62.18 60.24 47.46 52.02 60.47 62.52 62.58 62.38 61.99 60.95 59.47
58.87 59.62 61.05 61.19 61.85 62.86 63.43 64.09 62.79 62.51 62.39 62.54 60.18 45.49 47.82 53.84 64.65 63.74 63.56 63.42 63.22 61.03
58.24 58.41 60.26 60.96 61.58 63.21 63.98 64.04 63.56 63.14 63.10 62.81 57.69 44.37 45.58 51.71 63.97 63.79 63.53 63.74 63.50 62.92
58.72 58.30 59.54 60.08 61.61 62.82 63.24 63.57 63.24 63.11 62.87 62.31 60.36 43.43 43.15 50.80 61.53 61.24 60.62 59.94 59.82 60.26
59.60 59.02 59.07 60.23 61.57 62.46 62.59 62.00 61.04 61.31 62.40 56.44 61.49 42.15 41.58 49.14 57.28 58.57 56.86 57.03 56.23 44.19
60.72 59.68 60.83 61.65 61.93 61.57 61.31 60.58 60.62 59.93 61.06 61.02 59.65 56.78 40.73 41.39 57.02 56.07 54.46 53.56 54.07 52.35

GFSNIL_sfc_wetblb_009.txt.gz
Wetbulb
66.12 65.84 65.07 63.76 64.07 63.36 63.61 65.45 66.14 66.21 66.36 66.30 67.05 67.54 68.20 68.11 68.37 68.40 65.79 65.22 65.15 64.42
65.43 65.97 66.72 66.64 66.43 64.51 66.33 65.53 66.13 65.83 66.35 66.50 66.45 66.99 67.75 67.76 66.38 67.13 66.20 65.91 62.92 63.42
64.56 65.72 65.97 65.58 65.25 65.75 64.32 66.30 64.81 65.76 64.89 65.52 66.50 66.99 67.90 67.40 66.10 64.16 64.99 65.51 61.95 61.33
63.61 64.71 65.29 65.27 65.61 64.22 65.94 63.92 65.41 65.46 65.83 65.19 64.99 66.52 67.07 66.15 65.31 63.92 63.43 62.43 61.42 59.92
63.18 64.03 64.70 65.04 65.67 65.90 65.18 63.97 62.84 64.62 65.29 64.99 65.20 64.79 65.76 65.16 64.06 62.86 62.87 61.96 61.33 59.70
62.51 63.27 63.86 64.24 64.58 65.98 66.12 65.47 63.78 63.44 62.70 63.39 65.21 65.46 65.86 63.37 64.69 64.46 64.09 62.58 61.01 60.99
61.95 62.71 64.11 64.37 64.12 64.37 65.13 65.20 65.35 64.84 63.47 62.51 64.00 65.53 66.04 66.10 65.87 64.76 63.81 64.07 64.60 64.48
61.92 62.44 63.77 63.89 64.03 63.26 63.04 63.35 63.60 64.02 64.42 64.30 65.00 65.01 66.13 66.52 66.62 66.13 65.92 66.07 65.23 66.18
61.16 61.18 62.21 63.51 63.84 63.56 62.80 62.57 62.63 62.37 62.80 62.75 60.50 49.04 54.16 62.86 65.29 65.31 64.22 61.96 62.43 61.76
60.68 60.53 61.08 62.07 62.14 62.45 63.47 64.21 63.43 62.84 62.78 62.09 61.32 48.11 50.41 55.42 64.73 64.92 65.19 64.92 64.19 61.69
59.24 60.54 61.04 61.24 62.10 63.79 64.32 64.32 63.80 62.73 62.76 62.42 56.85 47.04 49.99 54.39 65.99 66.11 64.92 64.62 64.13 63.56
58.31 59.67 60.80 61.16 62.72 64.05 64.43 64.88 63.80 63.19 62.90 62.38 59.87 45.20 45.79 52.03 64.86 63.23 63.06 62.68 63.19 63.19
59.01 59.26 60.18 62.09 63.47 64.24 64.32 63.78 62.81 62.66 63.16 58.09 62.11 44.04 43.25 50.41 59.92 61.31 59.52 60.32 58.79 46.13
60.35 60.57 62.42 64.67 64.69 64.00 63.21 63.16 62.62 61.62 62.72 62.35 61.54 56.43 42.97 43.23 58.92 57.82 56.52 55.29 54.93 54.25

GFSNIL_sfc_wetblb_015.txt.gz
Wetbulb
60.36 60.14 59.04 59.11 59.65 59.15 59.65 60.59 61.72 61.84 61.81 61.82 62.07 62.22 61.41 60.84 60.78 61.06 61.86 60.51 59.56 60.31
60.68 60.68 60.64 60.08 60.42 60.13 60.92 62.60 61.68 62.54 61.57 61.80 61.90 61.81 61.41 61.75 62.00 62.11 61.31 60.86 60.74 60.98
60.96 61.30 61.35 60.99 60.41 60.52 61.06 60.11 61.16 62.45 62.13 62.14 61.98 62.80 62.64 62.41 61.10 61.67 61.68 61.16 60.78 60.47
59.39 60.75 61.69 60.54 61.78 60.06 61.42 61.49 62.42 62.30 61.78 61.85 62.77 62.62 62.02 61.66 60.87 60.07 59.85 59.86 60.05 59.84
59.80 60.78 61.19 60.79 61.25 61.37 60.34 61.46 62.09 62.94 62.70 62.67 61.86 61.11 61.15 61.25 60.93 59.99 58.53 58.46 59.86 59.29
59.25 59.17 59.83 60.38 59.99 61.35 60.66 60.70 61.77 62.29 62.32 62.67 62.36 61.97 62.18 61.82 61.19 60.22 59.84 59.35 59.38 59.39
58.03 58.54 58.82 59.73 60.88 61.42 61.66 61.11 60.82 61.57 62.63 62.55 62.87 62.98 62.67 62.38 61.29 60.68 59.92 59.84 59.88 59.70
57.88 59.43 59.60 59.56 60.29 61.14 61.91 61.10 61.47 61.10 61.89 62.54 63.23 63.46 62.79 62.58 61.76 60.66 60.22 60.21 60.42 60.45
57.42 58.98 59.52 57.92 57.53 59.13 59.72 59.63 59.28 58.83 57.80 58.06 60.28 51.75 55.76 60.63 61.14 61.11 60.67 60.12 60.32 59.39
57.11 59.03 58.95 58.55 58.02 57.68 57.98 56.93 57.00 57.10 56.29 53.25 52.45 50.95 53.21 56.17 62.53 61.78 60.88 59.86 59.52 60.25
56.90 57.87 58.32 57.85 57.34 57.70 57.84 56.83 56.28 56.54 55.14 52.77 50.10 47.64 50.24 53.47 59.20 58.51 59.02 59.02 58.93 58.94
56.36 56.10 56.68 57.31 56.68 57.80 57.63 56.88 56.00 55.37 54.21 52.79 49.68 48.05 50.86 57.67 58.33 57.83 58.03 57.13 55.97 57.17
56.57 55.96 55.29 57.56 57.49 58.27 58.19 58.06 57.93 55.90 54.25 52.38 51.00 45.01 46.11 55.32 58.27 54.76 53.01 50.50 52.80 51.14
56.14 56.14 56.13 58.57 58.92 58.78 58.63 57.76 56.59 56.79 54.91 53.99 51.69 48.35 43.79 46.52 55.88 54.63 52.93 50.81 48.37 48.88

GFSNIL_sfc_wetblb_021.txt.gz
Wetbulb
57.18 56.34 56.25 57.68 57.41 56.95 57.19 57.19 58.00 58.22 58.56 58.63 58.65 58.10 56.80 56.26 56.06 57.20 57.21 57.54 58.00 57.69
57.74 57.39 58.67 58.05 57.22 58.09 58.35 60.16 58.78 58.51 58.51 58.71 59.07 57.98 57.04 56.64 57.11 57.27 57.49 56.93 57.33 57.69
58.13 58.63 58.89 58.41 58.64 57.83 57.62 58.14 58.63 58.65 58.34 58.83 58.45 58.25 58.63 59.85 60.43 60.00 60.52 58.07 58.11 58.76
57.98 58.32 58.11 57.66 58.02 58.46 58.18 59.01 59.23 58.83 58.51 58.57 58.92 59.42 60.29 59.63 59.87 59.45 59.96 59.82 59.63 59.20
58.30 58.21 57.10 57.38 58.24 58.50 58.36 59.49 59.81 59.85 59.59 59.66 58.83 59.76 59.93 59.12 57.85 58.39 59.49 59.79 59.46 59.64
57.81 57.57 56.62 57.56 58.26 58.78 59.12 59.23 60.07 59.71 59.41 59.37 58.75 59.20 59.62 59.96 59.45 59.22 59.42 59.70 59.96 60.05
55.94 56.66 57.38 57.45 58.43 58.63 59.55 59.42 59.59 60.03 60.29 60.36 60.15 59.96 59.56 59.22 58.81 58.80 59.37 59.62 60.56 60.47
55.63 56.80 58.13 58.54 58.43 59.05 59.52 60.04 61.12 61.48 61.51 61.60 61.11 60.70 59.51 59.02 58.72 58.49 58.79 59.25 60.24 60.55
56.17 57.43 57.56 58.01 58.07 58.25 58.22 58.88 60.73 61.73 61.49 61.02 61.16 50.38 53.46 58.05 59.19 59.40 59.15 59.11 59.60 59.36
56.72 57.16 55.73 58.05 57.31 56.10 54.99 55.84 57.19 59.21 59.95 59.10 58.55 49.11 50.02 53.46 60.20 59.68 59.80 59.56 59.72 60.54
56.89 55.62 54.99 56.04 55.05 53.51 53.25 53.62 54.01 55.43 58.08 58.29 55.54 47.30 48.39 52.55 60.56 59.94 60.00 59.56 59.58 59.77
56.82 55.39 54.97 55.03 53.33 52.48 52.77 53.19 52.79 53.58 55.20 56.00 54.41 45.48 47.48 56.42 59.95 59.40 58.88 59.39 59.35 59.74
56.29 55.64 55.06 54.52 53.45 52.64 52.10 53.06 53.39 53.25 54.10 51.55 53.36 45.12 46.75 54.77 58.19 56.93 57.37 57.58 57.34 52.40
54.89 55.10 54.96 54.66 54.22 53.07 52.61 52.42 51.94 51.60 50.59 51.03 51.34 49.75 45.67 48.98 57.00 55.83 55.40 55.70 54.34 53.81

GFSNIL_sfc_wetblb_024.txt.gz
Wetbulb
57.75 58.00 57.70 59.20 58.69 58.19 58.79 58.79 59.33 59.73 59.40 59.52 59.52 59.25 58.88 58.84 59.10 59.96 59.96 59.96 59.93 59.90
58.90 59.13 59.03 59.13 59.82 59.39 59.97 60.29 59.67 59.92 60.00 59.99 59.68 58.96 58.69 58.49 58.94 59.46 59.44 59.67 60.32 60.16
59.41 60.13 59.75 60.04 59.23 58.90 59.51 60.02 59.98 59.45 59.99 60.09 59.41 59.07 59.36 59.87 59.80 60.17 59.66 59.60 60.22 60.56
59.37 59.27 58.65 59.13 59.29 59.51 59.96 60.02 59.76 59.45 59.86 59.64 59.39 60.45 60.46 60.80 60.88 60.42 59.96 59.91 59.87 60.00
59.26 59.16 57.98 58.89 59.28 59.93 59.85 60.54 60.22 59.98 59.82 59.41 59.10 60.43 59.82 59.55 59.47 59.58 59.20 60.05 60.38 60.03
58.58 58.37 57.90 58.84 59.48 60.01 60.11 60.33 60.57 60.48 60.11 59.36 59.50 59.95 59.98 59.72 59.66 59.98 60.36 60.33 60.63 60.47
57.72 58.39 58.13 59.02 59.73 60.16 60.46 60.08 60.18 60.56 60.31 59.35 59.68 59.66 59.93 60.22 59.86 60.01 60.22 60.87 60.97 60.94
57.13 58.24 59.18 59.28 59.48 60.17 60.72 60.98 60.84 60.91 61.17 60.46 59.61 60.07 59.11 59.23 59.49 59.40 59.67 60.48 60.93 61.47
57.22 58.09 58.87 58.89 59.12 59.32 60.23 61.40 61.54 61.34 61.24 60.84 60.37 50.02 52.66 57.72 59.50 59.40 59.71 59.50 59.50 58.95
57.51 57.49 58.54 58.91 58.09 57.23 57.17 58.97 60.17 60.32 60.71 59.62 57.41 47.84 48.93 52.92 59.78 59.64 59.55 59.64 60.00 60.11
57.84 56.07 57.81 57.30 55.92 55.13 55.43 56.82 58.22 58.89 59.29 59.04 54.95 46.57 47.66 51.65 60.52 60.41 60.25 60.52 60.25 59.77
57.14 55.77 56.50 55.78 54.46 54.56 55.39 55.65 56.12 57.66 58.65 58.43 53.99 46.39 47.84 56.14 60.09 59.59 59.38 60.21 60.26 60.27
56.95 55.98 55.81 55.29 54.31 54.44 55.21 55.25 56.15 56.56 57.88 53.75 56.20 44.94 46.75 56.04 60.00 58.95 59.28 59.51 57.93 52.32
56.69 56.21 56.47 55.17 54.97 54.22 54.56 54.54 54.48 53.87 54.56 56.50 56.04 52.43 45.48 49.84 58.99 58.65 58.36 58.11 57.81 57.93

GFSNIL_sfc_wetblb_030.txt.gz
Wetbulb
67.02 66.87 66.53 66.80 67.08 67.05 66.36 65.56 66.90 66.57 66.53 66.33 66.62 66.52 66.62 67.21 66.65 67.01 67.01 66.08 66.36 65.89
67.13 66.81 66.79 66.91 68.13 68.05 66.69 66.05 66.57 66.61 66.34 66.41 66.39 66.37 66.76 67.42 66.43 67.00 66.44 65.08 61.96 67.29
66.79 67.22 67.57 68.06 66.86 66.33 66.84 66.18 66.23 66.26 66.45 66.38 66.49 66.35 66.65 66.62 66.72 66.14 65.64 65.81 64.94 66.28
66.76 67.04 67.46 67.74 66.82 66.45 67.08 66.43 65.57 65.83 65.84 65.88 66.14 66.28 66.46 66.33 65.97 65.16 65.44 66.09 65.86 64.66
66.52 66.87 67.31 66.27 66.17 66.34 66.13 66.50 65.74 65.88 65.44 65.17 65.41 66.02 65.82 64.65 64.90 64.50 64.51 63.28 63.29 63.84
65.73 66.53 65.89 66.07 66.23 66.47 66.09 65.52 65.60 65.69 64.97 64.93 65.00 65.12 65.38 64.68 64.37 63.97 62.78 63.44 64.02 63.54
65.46 65.95 66.17 66.50 66.00 66.35 66.23 65.61 65.09 65.16 64.42 64.38 63.97 63.87 63.48 63.73 63.87 63.02 63.73 64.86 65.37 65.21
65.65 66.07 66.21 66.33 66.02 66.11 65.93 65.34 64.84 63.79 63.40 63.12 63.03 62.99 63.06 63.04 62.95 63.92 64.63 65.07 64.82 65.65
65.56 65.30 66.14 66.24 66.17 65.68 64.77 64.70 64.46 63.16 62.42 62.44 62.94 50.78 53.64 60.13 62.66 62.84 62.86 63.41 63.53 64.72
65.33 64.98 65.67 66.02 65.71 64.92 64.91 62.44 64.90 64.12 63.41 62.16 62.67 49.56 50.69 53.53 63.72 63.08 64.05 63.85 63.01 62.46
64.71 64.27 65.51 65.89 65.84 66.14 64.53 62.85 61.43 61.36 60.47 60.55 61.76 48.51 49.11 52.14 64.75 63.57 63.28 63.28 62.79 63.06
64.54 64.25 64.73 64.14 64.97 66.46 66.23 65.32 64.62 63.72 60.21 57.37 59.77 46.39 46.57 56.01 63.74 61.88 61.67 63.35 61.96 62.36
64.29 64.35 64.10 63.98 65.12 66.72 66.67 65.63 65.64 63.15 61.17 54.36 57.19 44.22 46.03 56.16 63.18 61.55 61.22 63.79 60.96 51.82
64.86 64.44 64.93 64.56 66.28 66.53 66.20 65.40 64.47 64.05 63.74 59.79 57.50 52.94 46.39 51.47 61.30 60.67 60.88 61.71 62.08 59.64

GFSNIL_sfc_wetblb_033.txt.gz
Wetbulb
67.73 66.49 66.89 67.33 67.90 67.60 66.83 67.96 67.21 66.78 66.78 66.81 66.17 66.03 66.98 68.79 67.80 67.58 67.99 66.16 66.57 66.91
67.18 67.29 66.84 67.19 68.57 67.91 67.48 66.34 66.38 66.57 66.68 66.41 66.12 66.64 67.20 67.08 66.20 66.35 66.43 66.57 66.31 66.74
68.13 67.14 67.06 68.22 67.26 67.11 67.36 66.31 66.13 66.45 66.67 66.36 66.50 66.62 67.37 67.45 67.02 66.31 64.05 66.03 65.47 65.45
67.29 66.59 66.95 67.41 66.95 66.94 67.32 65.97 65.32 65.93 65.85 65.74 65.78 66.46 66.84 66.74 65.57 64.67 65.56 64.69 64.92 64.73
67.51 65.92 66.54 66.06 66.58 67.09 66.41 66.26 65.29 65.83 64.98 64.85 65.37 66.36 65.75 64.97 65.38 64.92 64.45 65.10 64.61 63.75
65.95 66.89 66.11 66.13 66.00 66.47 66.16 65.64 65.58 65.86 65.02 64.49 64.81 65.21 65.06 64.92 64.65 64.61 63.40 63.64 64.51 63.17
66.49 66.13 66.64 66.30 66.16 66.24 66.22 65.50 65.08 65.56 64.95 65.12 65.08 64.87 64.65 64.74 64.00 63.57 64.39 65.34 65.38 63.57
66.14 66.93 66.22 65.98 66.17 66.28 66.36 65.00 65.04 64.77 65.08 64.27 64.04 63.36 63.89 64.12 63.63 64.07 64.58 65.59 65.11 64.92
65.23 65.13 65.85 65.98 66.22 66.14 65.99 65.33 64.48 63.18 62.94 63.49 64.24 52.28 54.96 60.56 64.43 64.60 64.70 64.72 65.10 64.08
65.13 64.39 65.27 65.63 65.32 64.58 65.28 65.34 64.60 64.03 63.32 64.53 62.80 51.25 51.94 54.02 64.57 64.29 64.91 64.29 64.19 63.85
65.15 64.24 64.88 65.42 65.67 65.26 64.55 63.74 62.07 61.80 63.22 64.36 60.89 49.90 49.70 53.27 64.83 65.08 64.87 64.42 63.91 62.65
64.97 65.00 64.57 64.71 65.67 66.76 65.54 65.54 64.52 62.91 60.38 61.97 61.00 48.20 46.99 54.10 64.81 64.64 63.93 64.09 63.70 61.70
65.33 65.00 65.11 65.37 66.06 67.33 66.86 65.59 65.24 62.98 61.69 55.02 62.69 46.22 45.53 53.30 63.03 63.88 61.74 61.10 59.58 49.64
65.30 65.36 65.97 65.71 66.90 66.90 66.00 65.62 64.64 62.32 60.49 60.27 61.90 59.39 46.08 49.34 64.00 63.17 62.89 61.50 60.90 58.28

GFSNIL_sfc_wetblb_036.txt.gz
Wetbulb
69.09 67.49 67.96 68.62 67.74 67.00 66.61 66.91 66.98 66.90 66.61 66.18 66.02 65.53 65.59 65.72 64.52 64.41 64.74 62.81 64.28 63.17
68.50 68.93 68.53 68.46 68.71 67.34 68.02 67.00 66.90 66.47 65.67 65.97 65.68 65.68 65.88 64.49 64.24 64.06 64.33 63.35 63.29 64.41
68.01 66.80 66.27 68.14 67.73 67.63 67.59 65.59 65.81 65.88 66.24 65.75 65.38 65.70 65.14 64.83 65.11 63.88 63.44 63.90 62.79 62.64
67.26 65.99 67.14 67.75 67.74 67.17 67.43 65.70 65.75 66.14 66.09 65.49 64.94 65.52 65.03 64.30 64.59 63.40 63.40 62.41 62.23 61.80
65.42 66.23 67.05 66.78 67.13 67.47 66.85 66.20 64.91 64.77 63.82 65.06 65.30 65.19 64.71 64.88 64.06 63.64 62.40 62.21 61.50 61.87
66.08 66.42 66.60 66.29 66.85 66.88 66.45 65.29 63.79 64.02 63.52 63.83 64.82 64.74 64.96 64.21 64.17 63.27 63.07 62.58 62.21 61.75
66.31 66.53 66.16 66.61 67.19 67.22 66.63 65.06 63.59 63.27 64.15 63.44 63.60 64.53 64.00 64.20 63.62 63.24 63.43 63.46 62.41 62.22
67.00 66.28 66.47 65.48 65.50 66.06 66.50 65.32 63.37 63.86 64.22 64.71 63.96 62.77 63.64 63.78 63.36 63.38 62.96 63.07 63.24 62.39
65.74 64.55 66.01 65.34 65.62 65.85 65.39 64.52 63.73 63.63 63.38 64.11 62.19 51.64 54.98 60.16 62.77 63.06 63.14 61.98 61.92 61.43
64.92 64.71 65.37 65.08 65.04 64.71 64.83 64.61 63.38 63.20 63.57 62.33 60.43 51.78 51.88 53.79 64.60 63.81 63.54 63.32 63.22 62.17
64.55 64.59 65.18 65.32 64.96 64.96 65.41 63.84 62.73 62.91 64.01 61.65 58.77 49.78 48.69 50.48 64.41 63.42 63.28 63.35 63.08 62.66
64.85 64.32 64.85 64.60 65.38 64.65 64.65 63.94 62.55 62.23 60.94 60.87 60.06 46.88 47.24 53.67 63.93 62.72 62.77 62.57 61.66 61.15
65.40 65.16 63.99 65.51 65.10 66.18 65.48 64.14 62.02 60.55 60.83 56.76 60.52 46.70 45.97 52.06 62.88 61.36 60.47 59.84 57.79 50.63
65.49 66.17 66.17 66.05 66.16 65.96 64.90 64.00 62.39 60.87 60.69 62.88 61.01 56.82 45.61 48.15 63.49 61.37 59.88 59.13 58.86 55.55

GFSNIL_sfc_wetblb_042.txt.gz
Wetbulb
60.14 59.83 60.59 59.76 60.03 60.09 59.85 60.00 60.09 60.50 60.28 60.63 61.15 60.51 59.92 58.83 59.11 59.09 59.69 59.29 58.87 58.35
61.08 60.22 59.72 60.46 60.99 60.46 60.13 61.21 61.01 60.57 60.28 60.59 60.96 60.81 59.59 59.25 59.64 59.81 59.20 59.36 58.52 59.51
59.73 61.17 61.20 61.34 60.92 60.57 61.03 61.17 60.50 60.34 60.07 60.21 60.53 60.72 59.72 59.08 60.30 59.54 58.81 59.55 58.81 58.43
60.14 61.45 60.45 61.16 61.10 60.35 60.15 60.48 60.53 60.77 60.44 60.49 60.75 60.78 59.46 59.25 59.69 59.04 59.36 59.01 58.80 58.47
60.86 60.56 60.72 61.01 61.05 60.03 59.91 60.14 61.16 61.34 61.03 60.71 61.14 60.34 60.03 60.50 60.45 59.61 60.50 59.75 59.28 58.11
60.30 60.28 60.30 60.60 60.91 60.55 60.41 60.57 60.53 60.27 60.73 60.86 60.94 60.68 60.33 60.90 60.54 60.50 59.78 60.23 60.17 59.23
59.86 60.06 60.18 60.47 60.76 61.12 61.09 61.30 61.08 60.97 62.05 61.47 61.09 61.70 61.40 60.77 59.64 60.10 60.56 61.21 60.90 60.41
60.20 60.26 60.37 60.66 60.84 60.74 60.49 61.86 62.33 61.88 60.27 59.90 60.34 60.66 60.14 59.92 59.80 59.92 60.32 61.13 61.43 61.13
60.57 60.84 60.12 60.19 60.67 59.92 59.97 59.90 59.68 60.14 58.44 57.82 57.97 49.31 52.20 57.65 59.62 59.64 59.63 60.03 59.30 59.84
60.89 60.66 60.16 60.87 60.79 58.82 58.14 58.06 57.99 57.21 56.95 55.79 54.48 46.78 48.41 52.40 59.69 58.35 58.52 58.48 59.68 60.20
61.23 60.59 60.93 60.45 59.48 58.44 57.21 56.99 57.05 56.15 55.71 54.79 53.36 46.23 47.86 51.85 59.17 58.78 60.66 59.05 60.49 59.19
61.08 60.57 60.60 59.62 58.77 58.31 58.01 57.43 56.99 56.71 54.67 54.13 54.06 46.05 49.50 57.03 60.90 59.76 59.70 60.83 60.53 59.32
61.55 60.97 60.47 59.36 58.75 58.41 58.41 59.78 59.55 57.79 55.93 52.21 56.15 44.42 48.41 56.75 59.70 58.11 57.83 57.99 57.47 51.31
60.98 60.87 60.61 59.67 59.19 58.94 57.93 57.97 58.55 57.33 56.43 54.51 53.85 52.21 46.60 50.22 56.55 57.05 57.43 57.45 56.81 54.80

GFSNIL_sfc_wetblb_045.txt.gz
Wetbulb
59.17 59.37 59.06 58.78 58.86 58.96 58.78 58.91 59.69 59.75 59.61 59.55 60.10 59.89 59.00 58.12 57.98 57.40 57.24 57.16 56.88 56.76
59.58 59.74 59.20 58.85 59.16 59.32 58.85 59.68 59.54 59.75 59.29 59.51 59.46 59.33 58.52 57.74 57.70 58.16 57.96 58.20 57.84 57.14
59.41 59.64 59.77 59.99 59.45 59.40 59.61 60.02 59.72 59.09 59.19 58.99 59.41 59.34 58.23 57.77 58.25 58.58 58.24 58.84 58.14 56.98
59.32 59.82 59.84 59.96 59.84 59.87 59.76 59.64 59.59 59.86 59.36 59.45 59.44 59.00 58.31 57.91 59.00 58.37 57.85 57.69 58.09 57.63
59.07 58.80 59.10 59.91 60.00 58.89 59.09 59.33 60.04 60.18 59.81 59.98 59.82 59.13 58.52 58.80 58.81 58.38 58.12 58.18 57.47 58.62
58.57 58.80 59.27 59.60 59.52 58.93 58.91 59.26 60.25 60.25 59.90 59.84 59.99 59.64 59.55 59.94 59.26 59.26 60.05 59.17 58.71 58.69
58.45 59.12 59.24 59.58 59.80 59.63 59.77 59.55 59.51 59.20 60.48 60.51 60.23 60.39 60.45 59.73 58.76 59.71 60.06 60.56 59.85 60.16
58.74 59.42 59.42 59.46 59.60 59.92 59.78 60.46 61.07 61.28 61.09 59.60 59.80 59.79 59.76 58.78 58.65 59.19 60.06 60.41 60.84 60.41
59.33 59.60 59.02 59.40 59.28 58.74 58.92 60.72 60.20 59.98 58.09 57.01 57.38 48.90 52.79 57.43 59.04 58.48 59.26 59.09 59.45 59.61
59.93 59.72 59.04 59.49 58.77 57.76 57.63 58.07 56.96 56.74 56.30 55.24 54.67 46.18 47.63 51.44 58.78 58.04 59.25 58.69 59.97 59.95
60.14 59.49 59.35 59.09 57.69 56.74 56.20 57.48 55.47 55.16 54.84 54.06 53.96 46.36 47.27 50.53 58.16 58.04 58.74 59.65 59.79 58.24
60.25 59.66 59.31 58.36 56.98 56.28 55.78 56.28 55.11 54.69 53.96 53.92 53.47 45.64 47.09 55.21 60.01 59.95 60.15 60.37 59.40 58.88
60.11 60.15 59.07 57.98 57.10 56.56 57.04 58.86 57.00 55.60 53.84 51.41 54.39 45.64 47.81 56.19 59.52 58.35 58.02 58.35 57.06 51.40
60.00 59.71 59.03 57.92 57.28 57.14 58.89 59.39 57.46 55.68 53.35 54.33 54.54 52.86 46.00 49.81 56.74 58.14 57.78 57.12 56.48 54.25

GFSNIL_sfc_wetblb_048.txt.gz
Wetbulb
59.89 59.80 59.63 59.85 60.11 60.24 60.47 60.82 61.48 61.82 61.74 61.26 61.45 61.20 60.72 60.53 60.29 59.94 59.53 59.25 59.09 59.27
59.82 59.95 59.68 59.75 60.35 60.43 60.50 60.69 61.27 61.24 60.94 61.10 61.43 61.19 60.68 60.12 59.94 60.23 60.07 60.13 59.93 59.72
60.05 60.33 60.23 60.52 60.37 60.37 60.52 60.99 60.65 60.24 60.65 60.69 61.00 61.07 60.55 60.18 60.13 60.18 60.33 60.61 60.42 59.63
59.80 60.34 60.65 60.63 60.57 60.63 60.99 60.76 60.35 60.65 60.38 60.68 60.62 60.68 60.18 59.99 60.65 60.29 59.98 60.62 59.99 59.65
59.85 59.78 59.74 60.13 60.47 60.89 60.52 60.76 60.99 61.17 60.98 60.97 61.29 60.75 60.67 60.11 60.64 59.80 59.69 59.03 58.91 59.26
58.99 59.07 59.95 60.59 60.11 59.99 60.21 60.40 61.14 61.24 60.99 60.62 61.10 61.19 61.00 60.76 60.12 60.37 59.72 59.59 58.75 59.72
58.73 59.50 60.12 60.53 59.84 60.28 60.37 60.68 60.88 61.18 61.33 61.42 61.28 61.41 61.45 61.02 60.66 60.90 59.99 60.64 59.87 60.25
59.28 59.95 60.30 60.47 60.51 60.93 60.70 61.09 61.03 60.72 61.81 61.28 61.17 60.22 60.87 60.25 60.08 60.94 60.41 60.54 60.68 60.30
59.63 59.98 59.90 60.18 60.50 60.46 60.28 61.03 61.62 60.46 60.08 59.69 58.06 46.74 51.31 58.12 60.09 60.37 60.03 59.94 59.84 59.50
59.93 59.74 59.82 60.09 59.51 59.12 58.94 59.32 59.45 59.44 58.56 58.09 56.91 45.87 46.96 51.49 60.60 60.14 60.13 59.88 59.80 60.05
60.26 59.54 59.82 59.49 58.77 57.95 58.05 58.01 57.43 57.44 57.26 57.02 55.69 46.41 46.78 50.04 60.03 60.01 60.40 60.80 60.14 58.72
60.55 59.59 59.66 58.71 57.99 57.61 57.71 57.75 56.87 57.18 56.35 56.96 57.01 45.69 45.33 54.96 61.13 60.46 60.24 60.01 59.40 58.67
60.85 60.09 59.73 58.90 57.87 57.93 58.78 58.15 57.25 56.23 56.21 51.77 57.40 45.15 46.41 56.09 60.13 58.84 58.25 58.05 56.73 49.86
60.85 60.37 59.71 58.74 58.95 58.57 59.80 58.43 56.83 55.63 55.93 57.31 55.34 51.75 46.78 50.22 59.79 58.62 57.91 57.33 56.29 53.14